TimeMST,TemperatureF,Dew PointF,Humidity,Sea Level PressureIn,VisibilityMPH,Wind Direction,Wind SpeedMPH,Gust SpeedMPH,PrecipitationIn,Events,Conditions,WindDirDegrees,DateUTC
12:53 AM,1.9,-2.0,83,30.37,10.0,Calm,Calm,-,N/A,,Clear,0,2013-02-04 07:53:00
1:53 AM,3.0,-2.0,80,30.36,10.0,Calm,Calm,-,N/A,,Clear,0,2013-02-04 08:53:00
3:53 AM,1.0,-2.9,83,30.35,10.0,Calm,Calm,-,N/A,,Clear,0,2013-02-04 10:53:00
4:53 AM,-2.0,-6.0,83,30.39,10.0,Calm,Calm,-,N/A,,Clear,0,2013-02-04 11:53:00
5:53 AM,-0.9,-6.0,79,30.41,10.0,Calm,Calm,-,N/A,,Clear,0,2013-02-04 12:53:00
6:53 AM,-0.0,-6.0,76,30.43,10.0,Calm,Calm,-,N/A,,Clear,0,2013-02-04 13:53:00
7:53 AM,1.9,-2.0,83,30.44,10.0,Calm,Calm,-,N/A,,Clear,0,2013-02-04 14:53:00
8:53 AM,6.1,1.9,83,30.44,10.0,Calm,Calm,-,N/A,,Scattered Clouds,0,2013-02-04 15:53:00
9:53 AM,10.9,6.1,81,30.43,10.0,Calm,Calm,-,N/A,,Clear,0,2013-02-04 16:53:00
10:53 AM,14.0,7.0,74,30.43,10.0,SSW,3.5,-,N/A,,Scattered Clouds,210,2013-02-04 17:53:00
11:53 AM,19.9,10.9,68,30.37,10.0,SW,3.5,-,N/A,,Overcast,220,2013-02-04 18:53:00
12:53 PM,23.0,12.0,63,30.34,10.0,SSW,3.5,-,N/A,,Overcast,210,2013-02-04 19:53:00
1:53 PM,24.1,12.9,62,30.30,10.0,Calm,Calm,-,N/A,,Clear,0,2013-02-04 20:53:00
2:53 PM,26.1,15.1,63,30.30,10.0,WSW,3.5,-,N/A,,Clear,240,2013-02-04 21:53:00
3:53 PM,24.1,15.1,69,30.32,10.0,Calm,Calm,-,N/A,,Clear,0,2013-02-04 22:53:00
4:53 PM,21.9,12.9,68,30.35,10.0,Calm,Calm,-,N/A,,Clear,0,2013-02-04 23:53:00
5:53 PM,19.0,10.9,71,30.38,10.0,Calm,Calm,-,0.00,,Clear,0,2013-02-05 00:53:00
6:53 PM,16.0,9.0,74,30.40,10.0,WSW,3.5,-,N/A,,Clear,250,2013-02-05 01:53:00
7:53 PM,14.0,9.0,80,30.40,10.0,Calm,Calm,-,N/A,,Clear,0,2013-02-05 02:53:00
8:53 PM,10.9,6.1,81,30.40,10.0,SSW,3.5,-,N/A,,Clear,210,2013-02-05 03:53:00
9:53 PM,8.1,3.9,83,30.39,10.0,Calm,Calm,-,N/A,,Clear,0,2013-02-05 04:53:00
10:53 PM,8.1,1.9,76,30.38,10.0,Calm,Calm,-,N/A,,Clear,0,2013-02-05 05:53:00
11:53 PM,7.0,1.9,80,30.38,10.0,Calm,Calm,-,N/A,,Clear,0,2013-02-05 06:53:00